DECAYED
Showing default

CICERO 10, 43690 (Decayed)

Orbit data source: Space-Track

CICERO 10, 43690 was a payload satellite owned by GeoOptics (US) in LEO that was launched on Sun, 11 Nov 2018 UTC via an ELECTRON launch vehicle from the Rocket Lab Launch Complex (RLLC). Payloads include a variety of satellites, spacecraft, and rockets equipped with specific instruments for various scientific and technological missions. These include communications satellites like Starlink; space stations such as the ISS; scientific satellites like the Hubble; Earth observation satellites from companies like Planet Labs, Umbra, and HawkEye 360; GPS; miniature CubeSats for education and research; and military/defense satellites.

Not visible in the next 10 days
CICERO 10 details
Identifier
43690, 2018-088A
Orbit
Decayed
Last TLE update5 months ago
Origin
Flag of USGeoOptics (US)
ManufacturerTyvak NSS
MissionDecayed Commercial Meteo Radio Occ.
Bus & MotorCUBESAT 6U, Unknown motor
Mass10 kg wet, 10 kg dry
Launch date (UTC)
2018-11-11 (6 years ago)
Launch vehicle
ELECTRON
Launch site
Rocket Lab Launch Complex (RLLC)
Object type
Payload
Rocket body
Debris
Shape & HBRBox + 2 Pan, 0.6 m
Radar Cross Section0.079 m², Medium (>0.1 m² and < 1m²)

Expand to show TLE details & history

TLE from 5 months ago
0 CICERO 10
1 43690U 18088A   24202.07134880  .09413868 -14258-5  71711-3 0  9993
2 43690  84.9796 154.7562 0010648 197.6392 162.4546 16.40097779317440
Epoch: 2024-07-20T01:42Z
Definitive object data (Epoch: 2024-07-20T01:42:44.536Z)
Latitude0.00005°
Longitude-169.26744°
Altitude175.5 km
Speed7.797 km/s
True Right ascension10h 19m 01s
True Declination0° 00' 00"
Sunlit
Object was in daylight at TLE epoch
Visualization observer readout
Observer readout values are unavailable because the object's trajectory could not be propagated. This is usually caused when the trajectory data is faulty or the object's orbit has decayed.
Visualization observer readout
Observer readout values are unavailable because the object's trajectory could not be propagated. This is usually caused when the trajectory data is faulty or the object's orbit has decayed.
Orbital elements
Apogee altitude169.224 km
Perigee altitude155.296 km
Semi-major axis6,540.397 km
Eccentricity0.0010648
Inclination84.9796°
RAAN154.7562°
Arg. of periapsis197.6392°
True anomaly162.49134°
Mean anomaly162.4546°
Eccentric anomaly162.47297°
Mean motion4.10334 °/min
BSTAR0.00071711
Orbital period87.73 mins
Loading maneuver chart data...
Loading historical data...
Loading historical data...
Loading historical data...
Loading historical data...
Loading historical data...
Loading historical data...
Loading historical data...

CICERO 10 Visibility forecast

Observer location: undefined°, undefined

This satellite is decayed
Span
Click to sort rows by Start time (UTC) header in descending order
Start Az.
Max El. time (UTC)
Max El. Az.
Max El.
End time (UTC)
End Az.
|